TimeEST,TemperatureF,Dew PointF,Humidity,Sea Level PressureIn,VisibilityMPH,Wind Direction,Wind SpeedMPH,Gust SpeedMPH,PrecipitationIn,Events,Conditions,WindDirDegrees,DateUTC
12:55 AM,42.8,41.4,95,30.24,7.0,WSW,1.2,-,N/A,,Scattered Clouds,240,2012-12-05 05:55:00
1:55 AM,41.7,40.8,97,30.26,3.0,WNW,2.3,-,N/A,,Clear,290,2012-12-05 06:55:00
2:24 AM,41.0,39.2,93,30.26,2.5,Calm,Calm,-,N/A,,Clear,0,2012-12-05 07:24:00
2:55 AM,40.1,39.4,97,30.28,2.0,South,2.3,-,N/A,,Clear,170,2012-12-05 07:55:00
3:55 AM,37.9,37.4,98,30.28,1.0,Calm,Calm,-,N/A,,Clear,0,2012-12-05 08:55:00
4:45 AM,35.6,35.6,100,30.27,0.5,Calm,Calm,-,N/A,Fog,Fog,0,2012-12-05 09:45:00
4:55 AM,36.7,36.3,99,30.29,1.0,Calm,Calm,-,N/A,,Clear,0,2012-12-05 09:55:00
5:32 AM,35.6,35.6,100,30.28,0.5,Calm,Calm,-,N/A,Fog,Fog,0,2012-12-05 10:32:00
5:55 AM,35.2,34.7,98,30.30,0.5,Calm,Calm,-,N/A,Fog,Fog,0,2012-12-05 10:55:00
6:55 AM,34.5,34.3,99,30.32,0.5,Calm,Calm,-,N/A,Fog,Fog,0,2012-12-05 11:55:00
7:55 AM,32.9,32.7,99,30.34,0.5,Calm,Calm,-,N/A,Fog,Fog,0,2012-12-05 12:55:00
9:55 AM,44.4,44.4,100,30.35,10.0,North,4.6,-,N/A,,Partly Cloudy,360,2012-12-05 14:55:00
10:55 AM,47.5,47.5,100,30.35,10.0,North,5.8,-,N/A,,Clear,360,2012-12-05 15:55:00
11:55 AM,50.5,48.2,92,30.33,10.0,ESE,5.8,-,N/A,,Scattered Clouds,110,2012-12-05 16:55:00
12:55 PM,54.3,38.7,55,30.31,10.0,Calm,Calm,-,N/A,,Scattered Clouds,0,2012-12-05 17:55:00
1:55 PM,55.2,38.5,53,30.29,10.0,North,8.1,-,N/A,,Clear,10,2012-12-05 18:55:00
2:55 PM,54.9,35.4,48,30.27,10.0,North,8.1,-,N/A,,Clear,360,2012-12-05 19:55:00
3:55 PM,54.5,34.0,46,30.27,10.0,North,6.9,-,N/A,,Clear,350,2012-12-05 20:55:00
4:55 PM,51.4,35.8,55,30.28,10.0,North,5.8,-,N/A,,Clear,360,2012-12-05 21:55:00
5:55 PM,48.0,35.2,61,30.27,10.0,NNE,4.6,-,N/A,,Clear,20,2012-12-05 22:55:00
6:55 PM,43.9,34.2,69,30.27,10.0,NNE,5.8,-,N/A,,Clear,30,2012-12-05 23:55:00
7:55 PM,45.5,34.2,65,30.27,10.0,NNE,5.8,-,N/A,,Clear,20,2012-12-06 00:55:00
8:55 PM,42.3,34.2,73,30.26,10.0,NE,4.6,-,N/A,,Clear,50,2012-12-06 01:55:00
9:55 PM,42.3,34.0,72,30.25,10.0,ENE,6.9,-,N/A,,Clear,60,2012-12-06 02:55:00
10:55 PM,41.4,32.9,72,30.24,10.0,ENE,8.1,-,N/A,,Clear,60,2012-12-06 03:55:00
11:55 PM,39.7,32.5,75,30.23,10.0,ENE,11.5,-,N/A,,Clear,70,2012-12-06 04:55:00